Location: downtown San Diego
(32.7310°N, 117.1990°W)
Time: 01:08:14
(UTC-07:00)

DMSP B5D2-2 - Pass Details

Date: 14 June 2018
Orbit: 790 x 807 km, 98.4° (Epoch: 21 August)

Event Time Altitude Azimuth Distance (km) Brightness Sun altitude
Rises 22:12:24 0° 9° (N) 3,315 7.9 -22.6°
Reaches altitude 10° 22:14:45 10° 7° (N) 2,378 7.1 -22.9°
Maximum altitude 22:19:58 70° 285° (WNW) 846 4.3 -23.6°
Enters shadow 22:22:21 33° 210° (SSW) 1,318 5.0 -23.9°
